Location: Unnamed
(51.5169°N, 0.1311°W)
Time: 06:51:18
(UTC+01:00)

Vanguard 1 - Pass Details

Date: 12 August 2024
Orbit: 649 x 3825 km, 34.2° (Epoch: 16 September)

Event Time Altitude Azimuth Distance (km) Brightness Sun altitude
Rises 02:06:05 0° 254° (WSW) 5,099 13.4 -22.3°
Reaches altitude 10° 02:09:09 10° 247° (WSW) 4,467 13.0 -22.2°
Maximum altitude 02:21:08 40° 183° (S) 3,759 12.5 -21.6°
Drops below altitude 10° 02:39:44 10° 125° (SE) 6,788 14.2 -20.5°
Sets 02:45:53 0° 119° (ESE) 7,946 14.7 -20.1°
